Weather in Krasnyye Orly

Russia / Kemerovo Oblast     56°10′12″N   87°13′58″E
temp.,
°C
wind,
m/s
gust,
m/s
humid.,
%
clouds,
%
prec.,
mm/h
press.,
hPa
HPBL,
m
8 march, mon
mon801:00−13sw489023 0.0 1022140
04:00−12ssw348896 0.0 102273
07:00−12sse369098 0.0 1020106
10:00−7sse5119097 0.0 1016440
13:000s6128699 0.0 1012797
16:00+1ssw51385100 0.0 1007949
19:000ssw71681100 0.0 1005916
22:00−2sw91782100 0.0 1005939
9 march, tue
tue901:00−2wsw81592100 0.4 1008978
04:00−9w6128982 0.3 1013450
07:00−11wsw5129191 0.3 1018446
10:00−11wsw61288100 0.0 1021600
13:00−9sw71280100 0.0 1022889
16:00−7sw8127964 0.0 10231011
19:00−8sw5148463 0.0 1022578
22:00−9sw61485100 0.0 1022586
10 march, wed
wed1001:00−10ssw61486100 0.0 1021526
04:00−12ssw5148655 0.0 1020406
07:00−11sw6148478 0.0 1019425
10:00−9sw7148092 0.0 1017542
13:00−5sw6118096 0.0 1017600
16:00−3sw4879100 0.0 1016722
19:00−5ssw2390100 0.0 101426
22:00−5se3593100 0.0 1012107
11 march, thu
thu1101:00−4se5991100 0.0 1006218
04:000s51687100 0.3 1000872
07:00+1sw91694100 1.9 998934
10:00+1sw10188999 0.2 10001327
13:00−5sw11168394 0.2 10051015
16:00−5wsw81284100 0.1 1009964
19:00−6sw61486100 0.1 1011740
22:00−6sw71486100 0.0 1013930
12 march, fri
fri1201:00−8sw7168599 0.0 1015775
04:00−10sw6158552 0.0 1017526
07:00−9s5148570 0.0 1013501
10:00−5ssw91787100 0.6 10091462
13:00−7sw10167382 1.9 10121512
16:00−10wsw81381100 0.1 10141270
19:00−13sw51286100 0.2 1015647
22:00−14wsw61387100 0.0 1017857